Location: Newark
(49.3000°N, 9.4667°E)
Time: 07:40:47
(UTC+00:00)

Altair - Visible Passes

Search period start: 25 May 2019 00:00
Search period end: 04 June 2019 00:00
Orbit: 1501 x 1683 km, 47.2° (Epoch: 24 May)

Date Brightness Start Highest point End Pass type
(mag) Time Alt. Az. Time Alt. Az. Time Alt. Az.
25 May 9.2 00:32:50 10° SSE 00:37:58 16° SE 00:43:11 10° E visible
25 May 8.3 02:31:22 10° SSW 02:40:45 45° SE 02:50:09 10° ENE visible
26 May 9.2 00:08:48 10° SSE 00:12:58 14° ESE 00:17:24 10° E visible
26 May 8.3 02:06:48 11° SSW 02:15:37 43° SE 02:24:55 10° ENE visible
26 May 9.2 23:44:44 10° SE 23:47:59 12° ESE 23:51:22 10° ESE visible
27 May 8.3 01:42:43 14° SSW 01:50:31 40° SE 01:59:40 10° ENE visible
27 May 9.3 23:21:22 10° SE 23:23:00 10° ESE 23:24:38 10° ESE visible
28 May 8.3 01:18:35 17° SSW 01:25:25 38° SE 01:34:25 10° ENE visible
29 May 8.4 00:54:24 20° S 01:00:20 35° SE 01:09:09 10° ENE visible
30 May 8.4 00:30:09 21° S 00:35:15 33° SE 00:43:52 10° ENE visible
30 May 7.8 02:28:59 10° WSW 02:38:57 67° SSE 02:48:59 10° E visible
31 May 8.4 00:05:50 22° S 00:10:11 31° SE 00:18:34 10° E visible
31 May 7.8 02:03:52 10° SW 02:13:46 65° SSE 02:23:46 10° E visible
31 May 8.5 23:41:27 23° SSE 23:45:07 28° SE 23:53:14 10° E visible
01 Jun 7.8 01:39:25 12° SW 01:48:36 62° SSE 01:58:34 10° ENE visible
01 Jun 8.5 23:17:00 23° SSE 23:20:04 26° SE 23:27:52 10° E visible
02 Jun 7.8 01:14:57 15° SW 01:23:26 60° SSE 01:33:21 10° ENE visible
02 Jun 8.5 22:52:26 22° SSE 22:55:01 24° SE 23:02:30 10° E visible
03 Jun 7.8 00:50:24 17° SW 00:58:17 57° SSE 01:08:08 10° ENE visible
03 Jun 8.5 22:27:46 21° SSE 22:30:00 22° SE 22:37:05 10° E visible
